Weather in Pudozh

Russia / Republic of Karelia     61°48′21″N   36°31′58″E
temp.,
°C
wind,
m/s
gust,
m/s
humid.,
%
clouds,
%
prec.,
mm/h
press.,
hPa
HPBL,
m
9 may, sun
sun900:00+4sw2793100 0.7 1006341
03:00+2wsw3793100 0.7 1007620
06:00+2wnw4988100 0.0 1007792
09:00+4wnw5874100 0.0 10091030
12:00+6wnw585887 0.0 10111478
15:00+9wnw574162 0.0 10132031
18:00+9w374212 0.0 10151888
21:00+3wsw22660 0.0 101742
10 may, mon
mon1000:00+2sw22774 0.0 102025
03:00+1ssw227835 0.0 102215
06:00+3s267617 0.0 1023161
09:00+9s475051 0.0 1023590
12:00+12ssw6942100 0.0 10231772
15:00+13sw61247100 0.0 10231802
18:00+8ssw51277100 0.3 1023863
21:00+9s41374100 0.4 1023495
11 may, tue
tue1100:00+9ssw41378100 0.1 1023428
03:00+9ssw5158165 0.2 1023436
06:00+10ssw41283100 0.1 1024429
09:00+11ssw41183100 0.2 1025374
12:00+18sw586228 0.0 1025791
15:00+20sw48536 0.0 10261183
18:00+19ssw27596 0.0 1026481
21:00+13ssw237529 0.0 102654
12 may, wed
wed1200:00+11ssw228232 0.0 102738
03:00+9ssw249142 0.0 102867
06:00+11s25845 0.0 1029136
09:00+17ssw24610 0.0 1029406
12:00+21ssw24460 0.0 1028963
15:00+23ssw34412 0.0 10271340
18:00+22ssw24485 0.0 1025849
21:00+16sse11714 0.0 102511
13 may, thu
thu1300:00+14se23793 0.0 102550
03:00+12se22840 0.0 102536
06:00+14ese25769 0.0 1025141
09:00+20se25585 0.0 1024616
12:00+23s47455 0.0 10221732
15:00+24s474557 0.0 10211847
18:00+22se365577 0.0 10191080
21:00+17sse397566 0.6 1019235